Location: Unspecified
(20.0000°S, 0.0000°E)
Time: 18:21:00
(UTC+00:00)

BEESAT - Pass Details

Date: 01 September 2019
Orbit: 701 x 708 km, 98.6° (Epoch: 22 September)

Event Time Altitude Azimuth Distance (km) Brightness Sun altitude
Rises 04:52:34 0° 164° (SSE) 3,106 ? -18.7°
Reaches altitude 10° 04:54:51 10° 162° (SSE) 2,182 ? -18.1°
Maximum altitude 04:59:37 69° 78° (ENE) 754 ? -17.0°
Drops below altitude 10° 05:04:20 10° 355° (N) 2,161 ? -15.9°
Sets 05:06:34 0° 352° (N) 3,073 ? -15.4°
